When you browse on this site, cookies collect data to enhance your experience and personalize the content and advertising you see.
Visit our Privacy Policy to learn more. By continuing to use the site, you agree to this use of cookies and data.
  • In Romania
  • List of Countries
  • For 7 days
  • Water Temperature
  • Satellite Maps
  • Weather Map
  • Weather Widgets
  • user-avatar
    Login

    Hourly Weather Vozrozhdenie

    Today, 21 November, Wednesday

    Time Temperature Precipitation Wind Pressure Humidity
    00:00 +6°C° 0.5 mm 2 mps 731 mmHg 92%
    01:00 +6°C° 0.1 mm 2 mps 731 mmHg 92%
    02:00 +6°C° 0.1 mm 2 mps 731 mmHg 92%
    03:00 +6°C° 0 mm 2 mps 732 mmHg 91%
    04:00 +6°C° 0 mm 2 mps 732 mmHg 91%
    05:00 +6°C° 0 mm 2 mps 732 mmHg 92%
    06:00 +6°C° 0 mm 2 mps 732 mmHg 92%
    07:00 +6°C° 0 mm 2 mps 732 mmHg 91%
    08:00 +7°C° 0 mm 1 mps 732 mmHg 91%
    09:00 +7°C° 0 mm 1 mps 732 mmHg 90%
    10:00 +7°C° 0 mm 1 mps 732 mmHg 88%
    11:00 +7°C° 0 mm 1 mps 732 mmHg 86%
    12:00 +7°C° 0 mm 1 mps 732 mmHg 84%
    13:00 +7°C° 0 mm 1 mps 732 mmHg 83%
    14:00 +7°C° 0 mm 1 mps 731 mmHg 82%
    15:00 +7°C° 0 mm 1 mps 731 mmHg 82%
    16:00 +7°C° 0 mm 1 mps 731 mmHg 84%
    17:00 +7°C° 0 mm 1 mps 731 mmHg 85%
    18:00 +6°C° 0 mm 1 mps 731 mmHg 87%
    19:00 +6°C° 0 mm 1 mps 731 mmHg 88%
    20:00 +6°C° 0 mm 1 mps 731 mmHg 89%
    21:00 +6°C° 0 mm 1 mps 731 mmHg 89%
    22:00 +5°C° 0 mm 1 mps 731 mmHg 90%
    23:00 +5°C° 0 mm 1 mps 730 mmHg 90%

    Tomorrow, 22 November, Thursday

    Time Temperature Precipitation Wind Pressure Humidity
    00:00 +5°C° 0 mm 1 mps 730 mmHg 91%
    01:00 +5°C° 0 mm 1 mps 730 mmHg 90%
    02:00 +4°C° 0 mm 1 mps 730 mmHg 90%
    03:00 +4°C° 0 mm 1 mps 730 mmHg 90%
    04:00 +4°C° 0 mm 1 mps 730 mmHg 89%
    05:00 +4°C° 0 mm 1 mps 730 mmHg 88%
    06:00 +4°C° 0 mm 1 mps 730 mmHg 88%
    07:00 +4°C° 0 mm 1 mps 730 mmHg 86%
    08:00 +4°C° 0 mm 1 mps 730 mmHg 85%
    09:00 +5°C° 0 mm 1 mps 730 mmHg 84%
    10:00 +5°C° 0 mm 1 mps 730 mmHg 81%
    11:00 +6°C° 0 mm 1 mps 730 mmHg 77%
    12:00 +7°C° 0 mm 1 mps 730 mmHg 74%
    13:00 +7°C° 0 mm 1 mps 729 mmHg 74%
    14:00 +7°C° 0 mm 1 mps 729 mmHg 74%
    15:00 +7°C° 0 mm 1 mps 729 mmHg 73%
    16:00 +7°C° 0 mm 1 mps 730 mmHg 75%
    17:00 +6°C° 0 mm 1 mps 730 mmHg 77%
    18:00 +6°C° 0 mm 1 mps 730 mmHg 79%
    19:00 +6°C° 0 mm 1 mps 730 mmHg 80%
    20:00 +5°C° 0 mm 1 mps 730 mmHg 82%
    21:00 +5°C° 0 mm 1 mps 730 mmHg 84%
    22:00 +4°C° 0 mm 1 mps 731 mmHg 85%
    23:00 +3°C° 0 mm 1 mps 731 mmHg 86%

    Day after tomorrow, 23 November, Friday

    Time Temperature Precipitation Wind Pressure Humidity
    00:00 +3°C° 0 mm 1 mps 731 mmHg 88%
    01:00 +3°C° 0 mm 1 mps 731 mmHg 88%
    02:00 +3°C° 0 mm 1 mps 731 mmHg 87%
    03:00 +2°C° 0 mm 1 mps 731 mmHg 87%
    04:00 +2°C° 0 mm 1 mps 731 mmHg 87%
    05:00 +2°C° 0 mm 1 mps 731 mmHg 87%
    06:00 +1°C° 0 mm 2 mps 731 mmHg 88%
    07:00 +2°C° 0 mm 2 mps 732 mmHg 83%
    08:00 +2°C° 0 mm 2 mps 732 mmHg 79%
    09:00 +2°C° 0 mm 3 mps 732 mmHg 74%
    10:00 +3°C° 0 mm 4 mps 732 mmHg 66%
    11:00 +4°C° 0 mm 4 mps 733 mmHg 58%
    12:00 +5°C° 0 mm 5 mps 733 mmHg 50%
    13:00 +5°C° 0 mm 5 mps 733 mmHg 48%
    14:00 +5°C° 0 mm 5 mps 734 mmHg 46%
    15:00 +5°C° 0 mm 5 mps 734 mmHg 45%
    16:00 +3°C° 0 mm 4 mps 735 mmHg 51%
    17:00 +2°C° 0 mm 3 mps 736 mmHg 57%
    18:00 +2°C° 0 mm 2 mps 737 mmHg 63%
    19:00 +1°C° 0 mm 2 mps 738 mmHg 67%
    20:00 -1°C° 0 mm 2 mps 738 mmHg 71%
    21:00 +1°C° 0 mm 1 mps 739 mmHg 75%
    22:00 0°C° 0 mm 1 mps 739 mmHg 77%
    23:00 0°C° 0 mm 1 mps 740 mmHg 79%

    24 November, Saturday

    Time Temperature Precipitation Wind Pressure Humidity
    00:00 0°C° 0 mm 1 mps 740 mmHg 81%
    01:00 0°C° 0 mm 1 mps 740 mmHg 81%
    02:00 0°C° 0 mm 1 mps 740 mmHg 81%
    03:00 -3°C° 0 mm 2 mps 740 mmHg 81%
    04:00 -3°C° 0 mm 2 mps 740 mmHg 81%
    05:00 -3°C° 0 mm 2 mps 740 mmHg 81%
    06:00 -3°C° 0 mm 2 mps 740 mmHg 81%
    07:00 -2°C° 0 mm 3 mps 740 mmHg 77%
    08:00 -2°C° 0 mm 3 mps 740 mmHg 73%
    09:00 -1°C° 0 mm 3 mps 740 mmHg 70%
    10:00 -1°C° 0 mm 4 mps 740 mmHg 65%
    11:00 0°C° 0 mm 4 mps 740 mmHg 61%
    12:00 +3°C° 0 mm 4 mps 739 mmHg 57%
    13:00 +3°C° 0 mm 4 mps 739 mmHg 58%
    14:00 +3°C° 0 mm 4 mps 739 mmHg 59%
    15:00 +3°C° 0 mm 4 mps 738 mmHg 60%
    16:00 0°C° 0 mm 4 mps 738 mmHg 64%
    17:00 0°C° 0 mm 3 mps 738 mmHg 69%
    18:00 -1°C° 0 mm 3 mps 738 mmHg 73%
    19:00 -1°C° 0 mm 3 mps 738 mmHg 73%
    20:00 -1°C° 0 mm 2 mps 738 mmHg 72%
    21:00 -2°C° 0 mm 2 mps 738 mmHg 71%
    22:00 -1°C° 0 mm 2 mps 737 mmHg 71%
    23:00 -1°C° 0 mm 2 mps 737 mmHg 71%

    25 November, Sunday

    Time Temperature Precipitation Wind Pressure Humidity
    00:00 +1°C° 0 mm 1 mps 736 mmHg 71%
    01:00 +1°C° 0 mm 1 mps 736 mmHg 71%
    02:00 +1°C° 0 mm 1 mps 736 mmHg 72%
    03:00 +1°C° 0 mm 1 mps 735 mmHg 72%
    04:00 +1°C° 0 mm 1 mps 735 mmHg 72%
    05:00 +1°C° 0 mm 1 mps 734 mmHg 72%
    06:00 +1°C° 0 mm 1 mps 734 mmHg 72%
    07:00 +1°C° 0 mm 0 mps 734 mmHg 69%
    08:00 +2°C° 0 mm 0 mps 733 mmHg 66%
    09:00 +3°C° 0 mm 0 mps 733 mmHg 64%
    10:00 +4°C° 0 mm 0 mps 733 mmHg 59%
    11:00 +6°C° 0 mm 1 mps 732 mmHg 53%
    12:00 +8°C° 0 mm 1 mps 732 mmHg 48%
    13:00 +8°C° 0 mm 1 mps 731 mmHg 50%
    14:00 +8°C° 0 mm 1 mps 731 mmHg 51%
    15:00 +8°C° 0 mm 1 mps 731 mmHg 52%
    16:00 +6°C° 0 mm 1 mps 731 mmHg 58%
    17:00 +5°C° 0 mm 1 mps 731 mmHg 63%
    18:00 +3°C° 0 mm 0 mps 731 mmHg 69%
    19:00 +3°C° 0 mm 0 mps 731 mmHg 70%
    20:00 +2°C° 0 mm 0 mps 731 mmHg 71%
    21:00 +2°C° 0 mm 0 mps 731 mmHg 72%
    22:00 +2°C° 0 mm 0 mps 730 mmHg 71%
    23:00 +2°C° 0 mm 0 mps 730 mmHg 70%

    26 November, Monday

    Time Temperature Precipitation Wind Pressure Humidity
    00:00 +2°C° 0 mm 0 mps 730 mmHg 69%
    01:00 +2°C° 0 mm 0 mps 730 mmHg 68%
    02:00 +2°C° 0 mm 0 mps 730 mmHg 67%
    03:00 +2°C° 0 mm 0 mps 730 mmHg 65%
    04:00 +2°C° 0 mm 0 mps 730 mmHg 64%
    05:00 +2°C° 0 mm 0 mps 730 mmHg 64%
    06:00 +2°C° 0 mm 0 mps 730 mmHg 63%
    07:00 +3°C° 0 mm 0 mps 730 mmHg 60%
    08:00 +4°C° 0 mm 0 mps 730 mmHg 57%
    09:00 +5°C° 0 mm 0 mps 730 mmHg 55%
    10:00 +6°C° 0 mm 0 mps 730 mmHg 50%
    11:00 +8°C° 0 mm 0 mps 729 mmHg 46%
    12:00 +9°C° 0 mm 0 mps 729 mmHg 42%
    13:00 +9°C° 0 mm 0 mps 729 mmHg 43%
    14:00 +10°C° 0 mm 1 mps 729 mmHg 44%
    15:00 +10°C° 0 mm 1 mps 729 mmHg 44%
    16:00 +9°C° 0 mm 1 mps 729 mmHg 49%
    17:00 +8°C° 0 mm 1 mps 729 mmHg 54%
    18:00 +6°C° 0 mm 1 mps 729 mmHg 58%
    19:00 +6°C° 0 mm 1 mps 729 mmHg 59%
    20:00 +6°C° 0 mm 1 mps 729 mmHg 59%
    21:00 +6°C° 0 mm 1 mps 729 mmHg 60%
    22:00 +5°C° 0 mm 1 mps 729 mmHg 60%
    23:00 +5°C° 0 mm 1 mps 729 mmHg 59%
    Show more